Time,TemperatureF,DewpointF,PressureIn,WindDirection,WindDirectionDegrees,WindSpeedMPH,WindSpeedGustMPH,Humidity,HourlyPrecipIn,Conditions,Clouds,dailyrainin,SoftwareType,DateUTC
2013-01-25 00:03:00,27.5,7.9,30.18,NE,45,0.0,0.0,43,0.00,,---,0.00,VWS V14.01,2013-01-25 06:03:00,
2013-01-25 00:08:00,27.5,7.9,30.18,NNE,22,0.0,0.0,43,0.00,,---,0.00,VWS V14.01,2013-01-25 06:08:00,
2013-01-25 00:13:00,27.5,7.9,30.18,West,270,0.0,0.0,43,0.00,,---,0.00,VWS V14.01,2013-01-25 06:13:00,
2013-01-25 00:18:00,27.5,8.5,30.21,North,0,0.0,0.0,44,0.00,,---,0.00,VWS V14.01,2013-01-25 06:18:00,
2013-01-25 00:23:00,27.7,8.6,30.21,South,180,0.0,0.0,44,0.00,,---,0.00,VWS V14.01,2013-01-25 06:23:00,
2013-01-25 00:28:00,27.7,8.6,30.21,NE,45,0.0,0.0,44,0.00,,---,0.00,VWS V14.01,2013-01-25 06:28:00,
2013-01-25 00:33:00,27.7,8.6,30.21,North,0,0.0,0.0,44,0.00,,---,0.00,VWS V14.01,2013-01-25 06:33:00,
2013-01-25 09:07:00,26.8,13.2,30.24,SW,225,0.0,0.0,56,0.00,,---,0.00,VWS V14.01,2013-01-25 15:07:00,
2013-01-25 09:12:00,27.1,13.5,30.24,South,180,0.0,0.0,56,0.00,,---,0.00,VWS V14.01,2013-01-25 15:12:00,
2013-01-25 09:17:00,28.6,14.5,30.24,NE,45,0.0,0.0,55,0.00,,---,0.00,VWS V14.01,2013-01-25 15:17:00,
2013-01-25 09:22:00,29.3,15.1,30.24,NE,45,0.0,2.0,55,0.00,,---,0.00,VWS V14.01,2013-01-25 15:22:00,
2013-01-25 09:27:00,30.2,15.6,30.24,SW,225,0.0,2.0,54,0.00,,---,0.00,VWS V14.01,2013-01-25 15:27:00,
2013-01-25 09:32:00,31.3,16.6,30.24,WNW,292,1.6,2.7,54,0.00,,---,0.00,VWS V14.01,2013-01-25 15:32:00,
2013-01-25 09:37:00,32.4,17.6,30.24,SSW,202,1.1,2.0,54,0.00,,---,0.00,VWS V14.01,2013-01-25 15:37:00,
2013-01-25 09:45:00,32.7,17.9,30.24,NW,315,0.0,0.0,54,0.00,,---,0.00,VWS V14.01,2013-01-25 15:45:00,
2013-01-25 09:50:00,33.8,18.0,30.24,WSW,248,0.0,0.0,52,0.00,,---,0.00,VWS V14.01,2013-01-25 15:50:00,
2013-01-25 09:55:00,34.5,18.7,30.24,South,180,1.3,4.3,52,0.00,,---,0.00,VWS V14.01,2013-01-25 15:55:00,
2013-01-25 10:00:00,35.8,19.9,30.24,West,270,0.9,0.9,52,0.00,,---,0.00,VWS V14.01,2013-01-25 16:00:00,
2013-01-25 10:05:00,36.1,19.8,30.24,WSW,248,1.6,1.6,51,0.00,,---,0.00,VWS V14.01,2013-01-25 16:05:00,
2013-01-25 10:10:00,36.7,20.3,30.24,West,270,1.1,1.1,51,0.00,,---,0.00,VWS V14.01,2013-01-25 16:10:00,
2013-01-25 10:15:00,36.7,19.8,30.24,West,270,2.0,3.8,50,0.00,,---,0.00,VWS V14.01,2013-01-25 16:15:00,
2013-01-25 10:20:00,36.7,19.8,30.24,SW,225,2.7,2.7,50,0.00,,---,0.00,VWS V14.01,2013-01-25 16:20:00,
2013-01-25 10:25:00,36.9,19.5,30.24,SW,225,0.0,0.9,49,0.00,,---,0.00,VWS V14.01,2013-01-25 16:25:00,
2013-01-25 10:30:00,37.8,19.9,30.24,WNW,292,3.8,3.8,48,0.00,,---,0.00,VWS V14.01,2013-01-25 16:30:00,
2013-01-25 10:35:00,38.3,20.4,30.24,West,270,3.1,3.1,48,0.00,,---,0.00,VWS V14.01,2013-01-25 16:35:00,
2013-01-25 10:40:00,38.8,20.4,30.24,NE,45,1.3,1.3,47,0.00,,---,0.00,VWS V14.01,2013-01-25 16:40:00,
2013-01-25 10:45:00,39.2,20.2,30.24,East,90,0.0,0.0,46,0.00,,---,0.00,VWS V14.01,2013-01-25 16:45:00,
2013-01-25 10:50:00,39.4,20.3,30.24,West,270,1.3,2.5,46,0.00,,---,0.00,VWS V14.01,2013-01-25 16:50:00,
2013-01-25 10:55:00,39.9,20.8,30.24,West,270,1.6,1.6,46,0.00,,---,0.00,VWS V14.01,2013-01-25 16:55:00,
2013-01-25 11:00:00,40.5,20.8,30.24,SW,225,1.1,1.1,45,0.00,,---,0.00,VWS V14.01,2013-01-25 17:00:00,
2013-01-25 11:05:00,40.8,21.7,30.24,WSW,248,2.5,2.5,46,0.00,,---,0.00,VWS V14.01,2013-01-25 17:05:00,
2013-01-25 11:10:00,41.7,22.0,30.24,NW,315,0.0,0.0,45,0.00,,---,0.00,VWS V14.01,2013-01-25 17:10:00,
2013-01-25 11:15:00,42.1,21.8,30.24,West,270,0.0,1.1,44,0.00,,---,0.00,VWS V14.01,2013-01-25 17:15:00,
2013-01-25 11:20:00,42.3,21.9,30.24,West,270,2.2,2.2,44,0.00,,---,0.00,VWS V14.01,2013-01-25 17:20:00,
2013-01-25 11:25:00,42.3,21.4,30.24,WNW,292,2.2,2.2,43,0.00,,---,0.00,VWS V14.01,2013-01-25 17:25:00,
2013-01-25 11:30:00,43.2,22.2,30.24,SW,225,2.9,2.9,43,0.00,,---,0.00,VWS V14.01,2013-01-25 17:30:00,
2013-01-25 11:35:00,44.2,23.2,30.24,WSW,248,0.9,0.9,43,0.00,,---,0.00,VWS V14.01,2013-01-25 17:35:00,
2013-01-25 11:40:00,44.2,22.6,30.24,SW,225,1.3,1.3,42,0.00,,---,0.00,VWS V14.01,2013-01-25 17:40:00,
2013-01-25 11:45:00,45.1,23.4,30.24,NW,315,0.0,1.1,42,0.00,,---,0.00,VWS V14.01,2013-01-25 17:45:00,
2013-01-25 11:50:00,45.3,23.0,30.24,SW,225,0.0,1.3,41,0.00,,---,0.00,VWS V14.01,2013-01-25 17:50:00,
2013-01-25 11:55:00,45.9,23.5,30.24,West,270,0.0,0.0,41,0.00,,---,0.00,VWS V14.01,2013-01-25 17:55:00,
2013-01-25 12:00:00,46.4,23.4,30.24,NNW,338,0.0,0.0,40,0.00,,---,0.00,VWS V14.01,2013-01-25 18:00:00,
2013-01-25 12:05:00,46.4,23.4,30.24,West,270,1.3,1.3,40,0.00,,---,0.00,VWS V14.01,2013-01-25 18:05:00,
2013-01-25 12:10:00,46.8,24.3,30.24,SW,225,3.4,3.4,41,0.00,,---,0.00,VWS V14.01,2013-01-25 18:10:00,
2013-01-25 12:15:00,46.9,23.9,30.24,South,180,1.3,1.3,40,0.00,,---,0.00,VWS V14.01,2013-01-25 18:15:00,
2013-01-25 12:24:00,47.1,24.1,30.24,WSW,248,0.0,1.3,40,0.00,,---,0.00,VWS V14.01,2013-01-25 18:24:00,
2013-01-25 12:29:00,47.1,24.1,30.24,South,180,2.2,2.9,40,0.00,,---,0.00,VWS V14.01,2013-01-25 18:29:00,
2013-01-25 12:34:00,47.3,24.2,30.24,SW,225,2.7,2.7,40,0.00,,---,0.00,VWS V14.01,2013-01-25 18:34:00,
2013-01-25 12:39:00,47.5,24.4,30.24,South,180,0.0,0.0,40,0.00,,---,0.00,VWS V14.01,2013-01-25 18:39:00,
2013-01-25 12:44:00,47.7,23.9,30.24,SW,225,2.0,2.0,39,0.00,,---,0.00,VWS V14.01,2013-01-25 18:44:00,
2013-01-25 12:49:00,48.2,24.4,30.21,West,270,0.0,1.1,39,0.00,,---,0.00,VWS V14.01,2013-01-25 18:49:00,
2013-01-25 12:54:00,48.6,24.7,30.21,West,270,2.9,2.9,39,0.00,,---,0.00,VWS V14.01,2013-01-25 18:54:00,
2013-01-25 12:59:00,48.7,24.9,30.21,WNW,292,0.0,0.0,39,0.00,,---,0.00,VWS V14.01,2013-01-25 18:59:00,
2013-01-25 13:04:00,48.7,24.9,30.21,West,270,1.1,2.5,39,0.00,,---,0.00,VWS V14.01,2013-01-25 19:04:00,
2013-01-25 13:09:00,48.9,25.1,30.21,South,180,0.0,2.0,39,0.00,,---,0.00,VWS V14.01,2013-01-25 19:09:00,
2013-01-25 13:14:00,49.5,25.5,30.21,SW,225,1.6,1.6,39,0.00,,---,0.00,VWS V14.01,2013-01-25 19:14:00,
2013-01-25 13:19:00,49.5,25.5,30.21,South,180,2.7,2.7,39,0.00,,---,0.00,VWS V14.01,2013-01-25 19:19:00,
2013-01-25 13:24:00,50.2,25.6,30.21,SW,225,2.5,2.5,38,0.00,,---,0.00,VWS V14.01,2013-01-25 19:24:00,
2013-01-25 13:29:00,50.2,25.6,30.21,SW,225,1.1,2.2,38,0.00,,---,0.00,VWS V14.01,2013-01-25 19:29:00,
2013-01-25 13:34:00,50.4,25.7,30.21,South,180,0.0,0.0,38,0.00,,---,0.00,VWS V14.01,2013-01-25 19:34:00,
2013-01-25 13:39:00,50.7,26.0,30.21,ENE,68,0.0,0.0,38,0.00,,---,0.00,VWS V14.01,2013-01-25 19:39:00,
2013-01-25 13:44:00,50.4,25.7,30.21,SW,225,1.6,1.6,38,0.00,,---,0.00,VWS V14.01,2013-01-25 19:44:00,
2013-01-25 13:49:00,50.9,26.2,30.21,NW,315,1.3,2.0,38,0.00,,---,0.00,VWS V14.01,2013-01-25 19:49:00,
2013-01-25 13:54:00,51.1,26.4,30.21,West,270,2.0,2.0,38,0.00,,---,0.00,VWS V14.01,2013-01-25 19:54:00,
2013-01-25 13:59:00,51.4,26.7,30.21,NW,315,0.0,0.0,38,0.00,,---,0.00,VWS V14.01,2013-01-25 19:59:00,
2013-01-25 14:04:00,51.8,26.4,30.21,WSW,248,0.9,2.7,37,0.00,,---,0.00,VWS V14.01,2013-01-25 20:04:00,
2013-01-25 14:09:00,52.5,27.0,30.21,North,0,0.0,0.0,37,0.00,,---,0.00,VWS V14.01,2013-01-25 20:09:00,
2013-01-25 14:14:00,53.1,27.5,30.21,NE,45,0.0,0.0,37,0.00,,---,0.00,VWS V14.01,2013-01-25 20:14:00,
2013-01-25 14:19:00,53.4,27.8,30.18,South,180,0.0,2.0,37,0.00,,---,0.00,VWS V14.01,2013-01-25 20:19:00,
2013-01-25 14:24:00,54.5,28.8,30.18,WSW,248,3.1,3.1,37,0.00,,---,0.00,VWS V14.01,2013-01-25 20:24:00,
2013-01-25 14:29:00,54.9,29.1,30.18,West,270,0.0,0.0,37,0.00,,---,0.00,VWS V14.01,2013-01-25 20:29:00,
2013-01-25 14:34:00,54.9,28.4,30.18,SW,225,0.0,0.0,36,0.00,,---,0.00,VWS V14.01,2013-01-25 20:34:00,
2013-01-25 14:39:00,55.6,29.1,30.18,NW,315,0.0,1.3,36,0.00,,---,0.00,VWS V14.01,2013-01-25 20:39:00,
2013-01-25 14:44:00,55.9,29.4,30.18,North,0,0.0,0.0,36,0.00,,---,0.00,VWS V14.01,2013-01-25 20:44:00,
2013-01-25 14:49:00,56.5,29.9,30.18,South,180,2.2,2.2,36,0.00,,---,0.00,VWS V14.01,2013-01-25 20:49:00,
2013-01-25 14:54:00,55.4,28.2,30.18,South,180,0.0,1.1,35,0.00,,---,0.00,VWS V14.01,2013-01-25 20:54:00,
2013-01-25 14:59:00,55.0,28.6,30.18,South,180,0.0,0.9,36,0.00,,---,0.00,VWS V14.01,2013-01-25 20:59:00,
2013-01-25 15:04:00,54.9,28.4,30.18,West,270,2.5,2.5,36,0.00,,---,0.00,VWS V14.01,2013-01-25 21:04:00,
2013-01-25 15:09:00,54.3,28.0,30.18,SW,225,2.9,2.9,36,0.00,,---,0.00,VWS V14.01,2013-01-25 21:09:00,
2013-01-25 15:14:00,53.8,27.5,30.18,SSW,202,0.0,0.0,36,0.00,,---,0.00,VWS V14.01,2013-01-25 21:14:00,
2013-01-25 15:19:00,52.7,26.5,30.18,South,180,2.0,3.1,36,0.00,,---,0.00,VWS V14.01,2013-01-25 21:19:00,
2013-01-25 15:24:00,51.8,25.7,30.18,West,270,2.2,2.7,36,0.00,,---,0.00,VWS V14.01,2013-01-25 21:24:00,
2013-01-25 15:29:00,50.2,24.3,30.18,SW,225,2.5,2.9,36,0.00,,---,0.00,VWS V14.01,2013-01-25 21:29:00,
2013-01-25 15:34:00,49.8,24.6,30.18,South,180,1.1,1.3,37,0.00,,---,0.00,VWS V14.01,2013-01-25 21:34:00,
2013-01-25 15:39:00,49.6,24.5,30.18,SSW,202,1.3,1.3,37,0.00,,---,0.00,VWS V14.01,2013-01-25 21:39:00,
2013-01-25 15:44:00,49.1,24.0,30.18,South,180,0.0,2.2,37,0.00,,---,0.00,VWS V14.01,2013-01-25 21:44:00,
2013-01-25 15:49:00,48.7,23.6,30.21,West,270,0.0,0.0,37,0.00,,---,0.00,VWS V14.01,2013-01-25 21:49:00,
2013-01-25 15:54:00,48.6,23.5,30.21,SW,225,1.6,2.2,37,0.00,,---,0.00,VWS V14.01,2013-01-25 21:54:00,
2013-01-25 15:59:00,48.2,23.2,30.21,SSW,202,0.9,1.1,37,0.00,,---,0.00,VWS V14.01,2013-01-25 21:59:00,
2013-01-25 16:04:00,48.0,23.0,30.21,WSW,248,1.6,1.6,37,0.00,,---,0.00,VWS V14.01,2013-01-25 22:04:00,
2013-01-25 16:09:00,47.8,22.9,30.21,SW,225,1.1,1.3,37,0.00,,---,0.00,VWS V14.01,2013-01-25 22:09:00,
2013-01-25 16:14:00,47.8,23.5,30.21,SW,225,0.0,0.0,38,0.00,,---,0.00,VWS V14.01,2013-01-25 22:14:00,
2013-01-25 16:19:00,47.8,23.5,30.21,South,180,0.0,0.0,38,0.00,,---,0.00,VWS V14.01,2013-01-25 22:19:00,
2013-01-25 16:24:00,47.7,23.3,30.21,WSW,248,0.0,2.0,38,0.00,,---,0.00,VWS V14.01,2013-01-25 22:24:00,
2013-01-25 16:29:00,47.3,23.0,30.21,West,270,0.0,0.0,38,0.00,,---,0.00,VWS V14.01,2013-01-25 22:29:00,
2013-01-25 21:56:00,27.9,14.2,30.24,NNE,22,0.0,0.0,56,0.00,,---,0.00,VWS V14.01,2013-01-26 03:56:00,
2013-01-25 22:01:00,27.9,14.6,30.24,NNE,22,0.0,0.0,57,0.00,,---,0.00,VWS V14.01,2013-01-26 04:01:00,
2013-01-25 22:06:00,27.7,14.4,30.24,NNE,22,0.0,0.0,57,0.00,,---,0.00,VWS V14.01,2013-01-26 04:06:00,
2013-01-25 22:11:00,27.7,14.4,30.24,NNE,22,0.0,0.0,57,0.00,,---,0.00,VWS V14.01,2013-01-26 04:11:00,
2013-01-25 22:16:00,27.5,14.3,30.24,NNE,22,0.0,0.0,57,0.00,,---,0.00,VWS V14.01,2013-01-26 04:16:00,
2013-01-25 22:21:00,27.3,14.1,30.24,NNE,22,0.0,0.0,57,0.00,,---,0.00,VWS V14.01,2013-01-26 04:21:00,
2013-01-25 22:26:00,27.1,13.9,30.24,NNE,22,0.0,0.0,57,0.00,,---,0.00,VWS V14.01,2013-01-26 04:26:00,
2013-01-25 22:31:00,27.0,14.2,30.24,NE,45,0.0,0.0,58,0.00,,---,0.00,VWS V14.01,2013-01-26 04:31:00,
2013-01-25 22:36:00,27.0,14.6,30.24,North,0,0.0,0.0,59,0.00,,---,0.00,VWS V14.01,2013-01-26 04:36:00,
2013-01-25 22:41:00,27.0,14.2,30.24,North,0,0.0,0.0,58,0.00,,---,0.00,VWS V14.01,2013-01-26 04:41:00,
2013-01-25 22:46:00,26.8,14.4,30.24,North,0,0.0,0.0,59,0.00,,---,0.00,VWS V14.01,2013-01-26 04:46:00,
2013-01-25 22:51:00,26.6,14.2,30.24,North,0,0.0,0.0,59,0.00,,---,0.00,VWS V14.01,2013-01-26 04:51:00,
2013-01-25 22:56:00,26.4,14.1,30.24,North,0,0.0,0.0,59,0.00,,---,0.00,VWS V14.01,2013-01-26 04:56:00,
2013-01-25 23:00:00,26.2,13.9,30.24,North,0,0.0,0.0,59,0.00,,---,0.00,VWS V14.01,2013-01-26 05:00:00,
2013-01-25 23:01:00,26.2,13.9,30.24,North,0,0.0,0.0,59,0.00,,---,0.00,VWS V14.01,2013-01-26 05:01:00,
2013-01-25 23:06:00,26.4,14.4,30.24,North,0,0.0,0.0,60,0.00,,---,0.00,VWS V14.01,2013-01-26 05:06:00,
2013-01-25 23:11:00,26.4,14.4,30.24,North,0,0.0,0.0,60,0.00,,---,0.00,VWS V14.01,2013-01-26 05:11:00,
2013-01-25 23:16:00,26.2,14.3,30.24,North,0,0.0,0.0,60,0.00,,---,0.00,VWS V14.01,2013-01-26 05:16:00,
2013-01-25 23:21:00,26.1,14.5,30.24,North,0,0.0,0.0,61,0.00,,---,0.00,VWS V14.01,2013-01-26 05:21:00,
2013-01-25 23:26:00,26.1,14.5,30.24,North,0,0.0,0.0,61,0.00,,---,0.00,VWS V14.01,2013-01-26 05:26:00,
2013-01-25 23:31:00,26.1,14.5,30.27,North,0,0.0,0.0,61,0.00,,---,0.00,VWS V14.01,2013-01-26 05:31:00,
2013-01-25 23:36:00,26.1,14.5,30.27,North,0,0.0,0.0,61,0.00,,---,0.00,VWS V14.01,2013-01-26 05:36:00,
2013-01-25 23:41:00,26.1,14.5,30.27,North,0,0.0,0.0,61,0.00,,---,0.00,VWS V14.01,2013-01-26 05:41:00,
2013-01-25 23:46:00,26.1,14.5,30.27,North,0,0.0,0.0,61,0.00,,---,0.00,VWS V14.01,2013-01-26 05:46:00,
2013-01-25 23:51:00,26.1,14.8,30.27,North,0,0.0,0.0,62,0.00,,---,0.00,VWS V14.01,2013-01-26 05:51:00,
2013-01-25 23:56:00,26.1,14.5,30.27,North,0,0.0,0.0,61,0.00,,---,0.00,VWS V14.01,2013-01-26 05:56:00,